GFSFLT2_500_spd_000.txt.gz
Wind_Speed
43 43 41 40 43 45 44 48 50 53 58 60 58 61 62 62 64 64 65 72 76 75 71 64 54 52 54
44 44 40 42 41 43 45 49 53 55 59 55 62 62 62 63 64 64 68 74 73 68 63 54 49 53 54
48 43 43 41 42 46 46 48 52 56 57 57 61 62 62 62 63 66 71 71 68 60 51 47 50 54 57
45 42 46 40 46 43 45 48 51 54 54 58 61 62 61 63 64 69 72 69 61 53 43 48 49 52 55
41 44 45 43 46 42 45 47 50 55 55 58 61 61 61 62 65 71 69 64 55 42 43 46 45 49 51
40 45 45 45 44 42 46 48 52 53 55 60 63 62 61 62 66 69 63 58 46 39 43 43 43 44 45
40 45 46 46 43 44 46 49 50 53 58 62 63 61 61 64 67 65 59 51 36 41 42 44 43 39 39
46 45 43 43 43 45 47 44 52 56 58 62 61 61 62 65 67 61 55 39 35 41 41 42 41 36 33
42 46 43 41 42 45 45 51 53 54 58 62 61 61 63 67 64 58 45 30 36 41 41 43 39 33 29
44 45 43 42 41 43 46 50 49 54 58 59 60 61 64 66 61 50 33 35 39 42 46 41 36 29 27
42 44 41 40 38 42 45 45 51 54 57 57 59 61 65 59 56 39 37 37 40 44 45 39 33 28 23
40 39 39 36 37 39 46 48 52 54 55 56 58 62 64 53 41 38 42 41 42 44 43 42 33 24 17
36 36 37 37 38 41 46 48 51 53 54 55 58 63 57 43 33 38 40 42 42 42 43 37 25 20 14
35 34 40 39 36 41 45 48 50 51 52 54 59 59 48 37 35 38 40 41 43 42 40 27 21 15 15
37 33 40 34 36 38 42 45 48 48 50 53 59 49 39 32 37 40 43 43 42 38 29 21 15 19 20
36 37 36 31 36 37 39 43 45 47 49 54 55 46 38 35 38 41 44 40 37 27 22 23 20 17 17
34 33 28 34 36 34 37 41 43 45 49 54 47 38 34 39 40 41 38 34 30 26 22 21 21 21 19

GFSFLT2_500_spd_003.txt.gz
Wind_Speed
48 51 47 42 45 48 43 43 48 44 47 52 53 57 58 59 59 61 63 63 65 64 67 71 74 73 64
52 50 50 42 47 47 45 47 48 46 49 50 52 54 57 57 58 62 63 63 64 66 70 72 71 64 51
48 49 46 45 47 48 47 48 47 47 48 49 51 55 57 57 59 62 63 65 65 68 69 70 65 53 50
52 47 50 46 46 45 48 43 43 45 46 49 53 54 56 58 61 62 63 64 66 68 68 66 55 48 51
52 45 49 47 47 47 45 42 41 44 45 48 50 55 56 58 61 62 63 65 67 67 66 57 46 50 48
54 46 44 48 50 47 43 38 42 44 47 48 52 54 56 59 60 61 62 65 66 64 59 45 47 49 46
53 48 43 45 52 53 45 41 45 44 47 50 53 53 58 59 60 60 61 64 62 59 46 45 47 45 46
50 45 40 38 44 44 49 45 44 44 46 49 50 56 58 58 60 60 61 60 57 46 45 46 45 45 43
49 47 42 40 41 44 45 44 44 42 42 49 52 55 57 58 58 60 58 56 44 44 45 46 45 41 42
47 46 44 41 43 43 45 43 42 39 42 49 53 55 57 58 58 59 55 46 41 44 45 45 42 40 43
45 47 42 33 40 41 37 35 41 39 43 51 52 54 56 57 59 57 51 40 42 43 45 45 42 41 32
39 40 30 31 33 33 36 37 38 41 45 50 51 53 56 56 56 51 41 42 43 45 47 45 38 30 20
33 32 29 29 34 36 31 40 44 45 49 49 50 53 55 56 50 41 40 44 46 46 44 39 25 20 16
33 34 33 32 30 28 30 43 47 49 48 48 50 53 54 52 42 38 42 43 45 38 34 27 23 21 20
29 29 32 29 27 33 38 45 49 47 45 47 49 51 51 44 36 38 41 44 39 30 29 27 17 16 19
28 26 26 25 28 34 41 44 46 44 44 45 47 49 45 40 40 41 44 42 31 27 24 22 25 22 21
25 25 24 26 30 36 38 44 43 40 41 44 48 44 39 37 40 42 41 35 30 30 23 21 19 20 20

GFSFLT2_500_spd_006.txt.gz
Wind_Speed
58 57 56 58 51 47 49 50 51 45 46 47 51 52 51 49 50 53 55 59 58 59 60 59 59 61 64
55 56 57 57 51 47 51 52 54 50 47 48 52 52 49 50 52 54 57 60 58 59 59 59 60 63 65
52 54 59 58 57 49 47 50 50 49 47 50 47 47 48 49 52 55 59 58 59 59 58 59 62 64 65
53 59 54 59 55 53 51 48 51 51 52 46 44 46 45 49 52 56 59 57 58 59 58 59 62 65 61
55 56 56 54 54 53 48 47 48 53 54 46 42 45 45 49 52 56 57 57 58 58 58 61 62 61 51
52 56 55 56 50 50 49 50 48 50 55 46 44 45 47 50 53 55 57 57 57 58 60 61 61 52 49
59 55 54 51 51 46 48 44 43 45 53 51 48 48 50 52 53 55 57 57 57 59 60 59 54 49 47
57 54 50 53 49 45 47 41 38 42 44 45 45 46 52 52 53 56 56 55 56 59 58 55 49 48 46
44 46 46 49 47 44 47 43 37 40 42 42 43 48 50 52 55 55 54 54 56 56 54 48 48 46 46
43 43 43 43 43 38 43 37 36 41 42 37 43 49 51 54 54 54 51 54 55 52 47 47 47 47 46
41 39 41 39 41 41 38 39 36 35 43 40 41 45 50 54 53 50 51 54 51 46 45 45 46 40 37
39 38 34 36 32 36 28 36 31 32 40 36 46 53 53 52 49 49 52 53 45 42 43 45 36 33 26
32 25 20 24 24 27 22 27 32 34 35 38 47 52 50 49 46 50 51 47 43 42 44 38 30 31 26
27 23 15 22 16 23 24 24 30 38 38 44 48 48 47 45 48 48 43 40 42 44 36 30 29 25 25
21 21 23 21 22 26 24 25 29 31 39 43 45 46 46 47 47 40 39 42 42 36 27 28 26 24 21
19 16 21 24 19 22 23 25 28 36 40 43 46 45 46 47 42 37 40 40 33 27 26 25 25 23 23
19 16 19 21 17 20 24 28 31 36 40 44 42 42 43 40 40 41 39 30 27 27 27 29 31 28 23

GFSFLT2_500_spd_009.txt.gz
Wind_Speed
70 67 63 64 62 55 50 52 50 50 48 49 50 49 50 48 43 50 50 52 53 53 54 57 58 60 59
62 59 57 55 53 52 50 48 50 48 46 50 49 50 54 51 46 48 50 51 51 53 56 57 57 59 60
64 61 56 52 51 51 50 51 51 46 50 50 51 52 58 52 52 48 49 51 52 55 56 55 57 59 60
63 60 58 56 50 53 52 50 50 46 45 53 50 48 55 58 57 46 50 49 52 55 55 57 59 59 60
63 59 59 57 58 60 55 44 45 45 42 47 51 50 52 53 49 44 49 48 53 56 57 60 58 58 59
65 63 59 55 64 63 54 45 47 46 45 44 47 50 48 57 51 47 50 52 56 57 60 60 57 57 61
66 62 59 55 57 54 52 41 46 53 46 43 45 43 46 50 46 45 53 54 58 60 60 58 56 59 61
63 60 56 54 52 49 46 47 45 46 44 47 42 40 41 43 44 53 52 55 60 59 58 56 57 59 58
61 55 54 50 48 44 36 49 46 39 40 41 41 40 40 41 43 47 51 55 55 56 55 55 57 56 51
52 48 47 44 41 38 38 40 42 40 36 42 36 32 41 43 44 49 51 55 54 55 54 55 55 48 48
44 37 36 37 37 35 31 34 35 40 41 41 38 38 40 42 50 51 55 55 53 53 53 53 49 47 48
34 27 21 31 33 29 25 38 39 35 31 30 33 31 37 41 43 50 53 51 51 52 50 47 47 45 34
31 24 18 24 28 27 22 27 31 26 27 28 35 35 38 40 46 48 47 48 50 49 45 46 44 33 28
29 20 21 18 23 14 13 14 16 22 22 27 32 37 38 44 44 45 45 48 48 47 45 43 31 28 29
26 20 22 20 13 6 13 16 14 17 19 26 32 36 40 41 43 43 45 46 45 44 40 31 27 24 24
22 18 20 25 23 21 13 11 15 18 21 26 31 37 38 39 43 43 41 41 42 37 30 31 31 26 28
16 18 20 22 17 21 11 10 15 19 24 28 35 36 37 40 41 39 38 35 34 36 35 33 35 37 33

GFSFLT2_500_spd_012.txt.gz
Wind_Speed
68 64 62 61 59 58 55 54 49 47 48 49 49 47 47 46 49 49 49 52 55 53 51 49 49 50 51
68 63 57 54 54 54 54 54 50 48 54 50 51 52 48 48 48 52 52 47 59 56 57 51 49 50 52
68 59 56 53 53 51 50 49 49 50 57 56 53 48 47 47 48 44 54 48 60 64 58 53 51 52 52
66 61 55 51 53 51 50 50 51 54 47 55 56 53 50 47 46 49 45 60 61 68 61 55 52 53 53
63 60 56 54 54 52 52 51 47 49 45 46 54 49 40 43 46 50 47 52 61 66 57 53 55 53 57
65 62 57 56 55 55 53 50 50 49 46 50 43 50 51 55 48 51 47 49 54 61 56 52 53 54 59
69 65 63 59 58 56 56 55 50 51 54 40 47 40 44 49 44 49 53 57 56 55 52 59 58 58 60
73 69 66 62 61 59 57 55 51 48 51 44 42 45 44 50 52 52 49 48 54 53 51 55 55 57 57
68 67 64 61 59 58 55 53 46 44 44 47 44 41 43 45 43 43 47 44 49 51 51 57 56 59 58
56 55 55 53 52 51 47 43 38 35 34 40 41 41 42 41 38 35 38 43 43 49 53 56 59 59 56
46 47 46 46 45 39 36 35 34 34 34 37 33 37 41 35 38 34 38 42 42 46 49 54 55 53 53
37 32 30 32 31 29 29 30 32 36 35 41 35 33 34 36 35 38 38 38 42 46 50 50 50 51 49
24 18 18 20 24 27 25 29 33 35 31 28 30 31 27 31 33 34 35 38 42 45 46 47 49 45 41
18 16 15 15 24 18 18 24 24 29 29 31 25 21 20 27 30 34 38 42 44 44 46 47 43 41 42
16 15 14 23 16 12 14 16 16 16 17 17 17 19 22 28 30 34 38 41 43 45 44 42 38 32 27
15 14 17 16 9 11 14 14 16 13 12 15 17 20 24 28 34 37 39 42 42 42 38 33 33 31 30
14 19 14 13 11 14 16 22 14 9 11 16 19 22 27 32 35 37 38 36 33 33 35 38 41 41 39

GFSFLT2_500_spd_015.txt.gz
Wind_Speed
74 70 69 67 64 63 62 63 63 61 62 60 57 54 54 50 55 57 56 51 50 49 51 55 53 52 52
72 69 64 62 59 59 56 57 57 57 61 59 58 57 54 50 55 55 53 49 49 48 49 52 54 53 55
69 63 64 60 58 56 54 54 52 52 56 58 59 57 53 53 55 55 54 55 50 48 51 57 55 56 64
70 64 63 59 61 58 56 56 54 56 57 60 63 60 61 62 58 48 53 50 53 57 49 52 60 67 65
71 67 62 59 59 57 57 54 53 54 56 58 61 64 63 55 55 56 59 57 57 49 49 54 54 64 63
76 72 66 63 60 59 60 58 54 55 57 54 58 57 64 62 46 47 52 52 50 54 51 51 50 59 64
80 75 71 67 65 63 63 62 58 56 57 51 51 53 56 55 48 43 48 51 54 60 50 53 53 52 61
71 70 67 64 63 63 61 60 55 53 54 51 50 47 51 53 60 39 42 48 51 53 52 49 54 55 62
56 56 55 52 51 56 58 59 55 51 52 52 48 44 46 47 43 39 42 43 41 49 54 54 52 50 56
44 45 44 42 42 47 49 51 49 46 45 42 40 40 42 42 45 47 43 40 39 44 40 41 43 44 47
30 31 34 35 36 40 43 42 33 28 25 28 29 33 37 32 33 34 39 38 38 35 36 36 41 39 44
18 20 23 27 30 31 29 25 21 21 22 24 26 27 32 31 31 34 36 33 36 34 34 37 39 41 45
12 13 19 20 23 24 18 9 17 18 23 21 23 28 29 32 33 32 34 39 38 34 37 40 43 46 48
12 15 18 19 16 12 13 14 18 22 23 20 24 26 26 26 28 32 34 27 29 32 35 40 43 45 45
13 15 16 14 12 10 12 13 18 17 22 23 25 25 25 23 21 20 22 24 29 34 38 41 43 44 41
12 11 14 9 3 9 13 8 10 14 16 20 20 20 20 19 20 23 26 30 35 39 41 43 42 37 30
12 11 8 5 9 8 8 8 11 14 17 17 17 18 18 19 22 26 30 33 37 38 37 34 32 33 34

GFSFLT2_500_spd_018.txt.gz
Wind_Speed
66 63 65 67 67 69 70 71 71 69 72 72 71 71 71 72 69 66 60 55 56 56 63 65 63 59 55
62 61 62 64 66 66 66 68 68 66 69 68 67 67 68 70 70 69 69 63 59 57 58 63 63 58 57
76 72 70 68 66 65 65 63 61 61 64 66 65 65 64 63 65 65 64 66 64 62 59 56 62 55 55
85 82 78 74 75 72 66 65 64 62 60 62 65 63 63 66 66 65 64 66 68 67 66 62 56 56 50
93 91 87 82 80 78 76 67 60 61 60 58 61 60 62 61 62 64 64 66 65 69 52 54 58 56 59
91 87 81 76 72 71 73 71 63 61 58 55 56 56 57 58 59 62 61 61 66 61 63 57 57 53 53
80 75 71 65 63 61 62 64 64 60 62 55 57 54 55 57 59 61 60 57 62 55 58 56 58 60 54
66 64 61 56 52 51 51 53 56 58 64 56 58 57 59 60 59 58 59 58 55 54 53 45 45 57 62
49 49 51 46 42 42 40 44 46 50 55 58 55 53 56 56 59 59 57 56 51 45 38 35 44 52 51
35 38 40 35 31 32 33 35 37 36 41 49 51 52 53 51 53 54 52 53 46 44 51 35 37 39 47
23 24 25 22 21 24 26 28 27 26 28 38 40 44 46 43 43 47 49 45 39 41 51 41 40 40 42
11 11 13 15 17 19 22 24 22 9 14 19 22 27 30 32 35 38 36 36 39 38 44 43 42 42 43
3 7 9 13 18 23 21 14 7 5 11 11 19 18 19 24 26 29 38 32 30 34 34 38 39 36 35
7 8 12 16 15 11 10 5 8 10 7 13 14 20 22 28 29 34 34 27 29 33 34 35 37 36 36
13 8 11 10 9 7 2 10 11 10 11 11 11 16 18 21 24 24 27 30 29 31 36 33 32 33 34
18 7 6 8 6 2 4 5 2 2 4 7 10 10 12 14 13 15 18 22 24 24 25 27 28 32 36
7 1 10 5 5 4 3 0 3 5 5 9 12 14 15 15 15 15 15 17 19 23 28 33 37 36 33

GFSFLT2_500_spd_021.txt.gz
Wind_Speed
74 68 66 64 61 60 58 58 57 59 63 69 73 76 78 82 85 89 89 73 70 57 52 57 60 64 63
78 75 74 72 70 68 66 65 63 61 61 62 65 68 71 74 80 85 87 82 82 74 63 57 58 59 60
91 85 83 81 80 77 74 72 71 69 67 67 65 63 66 66 66 72 78 79 81 81 75 71 61 65 69
93 94 92 89 89 87 84 82 80 79 76 71 69 68 65 66 62 64 66 71 69 73 75 79 72 71 65
78 79 80 84 87 89 91 87 83 80 77 72 72 70 67 62 61 56 60 57 61 66 65 71 73 72 71
69 68 63 63 64 68 72 71 68 66 67 64 67 67 69 63 59 60 57 59 55 57 62 65 64 60 59
56 50 48 46 48 48 52 55 55 55 56 57 58 59 64 64 59 58 59 60 58 58 52 53 54 57 55
49 47 44 40 39 36 36 40 43 42 46 47 48 52 59 62 59 57 56 56 52 51 48 47 47 47 47
44 43 42 36 33 30 27 32 28 27 35 39 38 46 55 60 59 56 52 50 49 46 44 44 43 38 42
36 35 35 31 25 22 20 19 16 14 28 31 32 39 48 56 57 55 53 50 48 48 46 43 38 37 38
27 24 21 19 18 15 18 17 11 10 20 23 26 32 39 46 54 54 52 49 47 45 44 41 38 37 40
14 9 13 17 19 17 15 16 13 9 13 17 20 26 32 40 46 49 48 45 43 43 41 40 37 41 44
13 13 13 12 13 15 19 16 6 1 8 11 18 26 30 34 39 41 42 40 40 41 40 37 42 43 45
13 13 13 12 15 9 4 2 4 2 4 5 8 15 19 25 29 31 32 33 32 35 37 41 43 38 45
24 14 11 10 4 1 1 8 11 11 3 11 14 16 20 23 26 27 27 28 31 38 34 38 40 35 38
16 10 6 2 1 3 9 9 4 5 9 9 10 15 18 22 25 24 26 30 33 38 32 32 35 35 34
11 6 3 6 7 8 7 7 9 13 10 8 10 10 10 15 18 19 25 29 31 31 29 29 31 33 34

GFSFLT2_500_spd_024.txt.gz
Wind_Speed
87 80 82 86 87 88 87 81 74 72 70 68 65 63 63 65 68 82 87 95 104 105 92 74 64 65 56
82 76 69 69 75 81 85 88 85 79 76 72 69 66 64 61 60 62 77 78 94 101 89 93 74 64 69
72 68 66 63 67 69 72 73 81 88 83 79 76 73 69 64 62 63 62 69 72 84 91 95 97 73 61
71 71 64 62 66 68 69 67 73 76 84 87 83 79 76 71 67 64 64 64 65 69 70 80 90 85 84
70 65 61 60 59 58 60 56 55 63 71 80 86 85 81 79 75 71 69 69 67 63 60 61 69 76 84
63 59 56 56 56 54 52 46 41 39 55 61 70 78 82 82 81 79 75 72 69 63 59 57 63 67 67
58 55 55 52 53 49 45 42 34 30 37 42 50 59 65 67 68 68 67 68 68 62 57 54 55 55 58
56 56 55 49 47 42 35 30 24 22 27 28 35 42 49 51 53 54 57 63 63 59 54 48 45 46 51
51 51 49 43 39 34 27 21 8 8 16 23 25 29 35 38 42 46 50 55 57 53 49 46 45 43 46
40 39 36 29 26 30 29 19 10 2 11 19 20 20 21 27 32 37 41 45 50 47 44 42 42 39 41
22 20 20 21 25 27 29 22 14 7 10 11 13 14 13 20 25 31 35 42 44 42 39 35 32 36 32
20 21 22 23 24 24 24 24 19 6 6 7 9 10 11 15 19 24 28 34 37 35 33 31 31 34 34
27 29 26 22 21 24 19 12 10 4 2 1 6 10 11 15 19 21 25 30 31 31 31 31 32 31 32
21 18 21 19 15 11 11 9 8 5 8 8 7 6 13 16 17 21 25 27 28 28 28 29 30 32 33
15 14 13 11 11 11 12 13 14 13 9 3 3 4 8 10 15 19 23 26 26 27 28 31 34 37 39
14 13 11 11 11 14 13 9 9 9 9 5 8 10 10 15 17 18 23 26 26 29 30 32 36 40 43
15 13 13 12 11 11 12 14 15 15 15 12 12 9 14 15 18 21 22 25 28 28 31 31 34 34 36

GFSFLT2_500_spd_027.txt.gz
Wind_Speed
88 81 79 80 79 81 78 73 69 67 67 69 74 78 80 77 75 73 73 72 74 84 95 106 106 88 90
83 79 74 70 67 67 68 70 72 69 67 68 70 71 74 80 77 74 71 70 69 69 74 85 90 103 101
81 73 69 65 64 66 68 67 64 64 66 68 70 71 73 74 80 77 73 71 69 67 66 66 79 91 94
72 69 66 61 62 64 61 57 56 59 63 61 61 64 66 72 77 80 76 74 70 66 61 61 60 78 75
67 65 62 60 60 61 60 55 50 55 55 52 53 52 51 60 70 81 80 77 74 68 65 61 57 55 62
64 62 59 60 59 57 57 51 40 38 45 37 43 38 39 45 60 72 82 79 76 72 67 62 58 55 51
60 57 59 57 58 52 44 39 32 26 33 24 28 27 29 33 46 61 76 80 78 74 70 65 59 55 52
54 54 56 53 45 36 26 21 17 20 24 13 18 22 28 28 34 47 59 75 77 74 71 68 63 58 54
47 47 40 34 33 30 29 27 20 19 21 22 18 17 20 20 24 33 42 53 62 67 69 69 67 62 53
31 29 32 34 37 40 38 28 13 10 19 24 18 16 15 14 16 21 26 34 40 45 51 55 57 54 48
26 30 34 39 39 37 35 34 21 14 19 17 13 13 9 9 8 11 17 23 28 32 37 42 44 43 41
31 38 36 35 33 33 26 23 16 8 11 13 11 11 6 5 6 7 10 16 21 25 31 36 39 38 40
34 27 25 22 17 16 16 10 15 9 8 10 10 10 5 2 3 10 16 22 26 31 34 33 36 34 34
19 18 15 14 15 17 19 19 19 17 17 13 9 7 3 4 7 15 23 29 31 31 30 29 29 32 36
19 19 17 16 18 17 17 17 16 15 12 7 9 2 2 2 9 18 24 29 30 30 29 26 31 32 35
19 19 17 17 18 16 18 18 20 21 18 7 7 11 10 12 17 21 24 27 28 28 28 28 29 32 34
17 17 17 16 15 16 19 20 19 19 21 17 8 10 12 12 13 17 22 24 25 27 28 28 30 33 37

GFSFLT2_500_spd_030.txt.gz
Wind_Speed
92 88 83 82 80 84 84 79 75 71 70 69 68 66 67 67 67 66 65 70 81 83 79 83 90 95 100
85 81 81 79 77 74 71 70 69 66 65 64 63 65 65 65 64 64 65 65 69 81 80 76 79 77 86
84 80 78 74 69 65 64 62 61 62 64 62 61 60 58 58 58 59 62 65 66 74 80 76 73 68 70
84 79 71 63 62 60 55 55 56 58 57 56 59 59 59 59 59 59 61 63 68 67 81 77 72 66 64
78 70 63 57 55 53 53 48 46 51 52 48 53 51 49 50 49 51 55 56 62 69 74 79 73 66 62
68 62 54 52 49 45 41 37 26 32 37 32 41 37 37 37 38 41 43 44 51 63 72 80 72 65 61
60 56 49 47 38 28 28 31 27 27 33 27 27 23 26 30 32 34 33 36 40 54 66 78 71 65 61
54 48 46 34 34 36 37 32 29 26 31 25 30 27 28 31 33 39 39 29 29 45 59 74 68 63 59
44 39 37 41 45 48 46 37 25 23 29 32 26 27 31 32 31 33 25 20 23 37 51 70 66 63 59
29 33 40 44 48 49 40 28 20 16 28 27 22 27 23 26 26 21 13 12 17 29 43 66 65 63 59
34 39 40 37 32 26 24 21 19 16 23 19 21 22 19 16 16 7 4 5 13 23 35 56 62 62 58
32 27 26 22 20 23 26 26 27 25 19 20 18 19 18 13 9 4 2 6 12 19 29 44 58 60 59
22 22 22 20 21 24 24 22 20 20 20 17 17 16 15 9 6 4 8 13 16 18 22 28 39 49 54
22 22 20 18 17 17 19 20 22 21 19 13 14 9 12 11 10 11 16 19 23 24 26 28 31 35 39
21 20 20 19 18 19 19 21 24 23 18 18 15 14 13 14 14 17 21 25 29 32 32 34 36 39 38
18 18 18 17 17 18 19 21 23 27 18 18 16 17 15 17 19 23 26 30 33 32 32 28 33 34 31
19 19 19 18 19 20 21 21 21 22 25 15 16 17 17 17 21 26 28 30 33 30 27 31 30 31 33

GFSFLT2_500_spd_033.txt.gz
Wind_Speed
91 87 85 85 81 84 85 83 81 78 75 74 70 68 69 69 68 68 68 68 68 68 70 75 81 86 88
83 79 77 73 72 74 78 79 75 70 67 64 62 64 64 65 66 66 65 65 66 66 67 67 70 77 84
80 74 71 74 72 70 65 62 62 61 59 59 62 63 64 64 65 64 62 62 62 63 64 68 68 66 72
80 76 74 68 63 60 55 50 48 47 49 52 53 54 54 57 57 56 56 58 59 60 61 61 63 67 66
82 74 59 54 55 51 43 36 30 32 33 37 38 36 37 41 41 41 41 43 46 52 60 62 62 63 66
62 53 51 49 44 37 29 27 28 36 38 35 42 38 39 39 37 35 32 31 32 38 46 54 61 64 63
50 47 43 38 32 33 37 38 36 35 40 28 39 41 39 39 38 36 34 33 34 33 34 42 53 60 63
44 40 35 38 43 42 37 24 21 25 37 30 32 34 35 35 35 38 40 40 40 39 37 35 41 51 62
34 37 41 44 41 29 24 20 18 22 28 26 29 26 27 31 35 34 31 33 38 35 32 33 37 45 61
34 36 34 30 30 28 27 29 29 27 32 29 25 22 22 28 28 25 21 20 20 21 23 25 33 48 56
25 25 28 27 27 28 31 30 25 24 25 24 23 25 25 23 21 15 14 15 12 11 14 19 34 47 58
23 23 22 22 23 24 26 28 30 28 26 21 23 17 15 16 12 12 12 11 6 4 13 22 35 52 60
22 22 21 21 23 24 25 28 32 30 24 24 18 12 13 10 11 10 10 11 13 7 10 24 40 55 55
20 20 21 21 21 21 22 25 28 27 23 20 14 12 13 12 12 13 15 24 19 14 14 25 44 50 49
20 21 21 22 22 21 22 24 26 27 20 20 18 12 12 14 18 22 28 23 22 23 19 22 37 46 45
20 21 21 21 20 21 22 22 24 25 18 18 18 15 15 16 18 30 24 23 23 20 28 20 26 37 42
24 24 24 23 21 19 18 18 20 20 19 14 15 14 13 14 17 25 31 27 26 24 31 26 26 28 32

GFSFLT2_500_spd_036.txt.gz
Wind_Speed
101 95 91 90 90 90 89 85 82 78 79 79 77 76 75 74 74 72 73 74 75 76 77 78 80 82 84
88 82 80 75 76 77 81 83 81 75 70 65 65 65 64 64 63 63 63 64 65 66 68 70 71 73 74
81 73 72 76 77 76 73 68 62 60 58 56 56 54 51 51 53 55 57 58 61 61 61 63 66 68 69
81 77 75 69 62 58 49 50 48 45 43 45 42 41 44 47 45 43 42 43 46 51 57 59 62 65 67
74 65 53 49 48 42 34 31 29 34 38 38 44 47 49 53 50 43 38 34 33 37 42 46 53 58 61
48 47 45 42 35 34 39 38 34 40 45 40 51 48 51 54 53 50 40 32 26 28 30 35 41 47 55
43 40 34 37 41 36 29 25 24 28 28 25 32 30 32 33 34 33 31 30 31 31 33 30 30 32 42
37 36 39 36 30 31 26 22 28 34 36 31 37 34 33 31 27 25 27 28 33 35 33 32 34 34 36
36 36 31 32 31 26 26 25 24 31 33 33 34 31 32 33 29 29 31 31 34 35 37 38 40 39 42
25 26 26 25 27 29 28 26 27 26 32 29 29 28 22 28 28 31 35 30 27 28 31 34 34 40 41
19 20 23 24 25 27 29 29 26 26 29 31 27 26 20 20 25 24 20 22 20 20 20 22 23 25 32
20 22 21 21 23 25 27 30 33 31 30 28 23 22 25 20 18 17 18 22 25 17 14 11 12 18 27
21 21 21 20 21 24 27 29 33 31 26 29 24 25 22 20 17 17 22 23 23 20 9 2 11 25 39
20 22 22 23 22 22 22 25 27 28 24 28 24 21 20 23 25 18 20 21 23 18 9 15 27 39 51
26 27 28 27 25 23 22 23 23 23 19 24 22 19 19 29 26 23 21 21 22 21 19 30 43 48 49
25 24 25 25 24 23 21 19 20 20 16 18 19 18 17 21 23 21 26 30 28 27 28 37 41 41 41
21 22 24 24 24 22 19 17 16 16 15 10 15 14 15 19 24 23 34 37 33 32 27 33 34 34 35

GFSFLT2_500_spd_039.txt.gz
Wind_Speed
123 116 107 100 96 95 90 86 82 78 78 79 79 78 77 77 74 72 71 72 73 74 76 78 81 85 85
103 92 89 86 83 82 81 79 74 64 58 58 58 59 58 58 59 60 60 59 60 61 63 65 69 72 78
91 85 75 70 63 59 54 50 52 51 48 48 48 47 45 45 47 49 48 46 46 47 50 56 62 66 67
77 65 54 48 45 41 37 39 38 42 45 46 47 48 49 49 48 48 48 48 47 45 42 44 48 56 64
56 49 47 43 36 34 37 35 33 39 38 37 40 38 41 41 39 38 38 40 40 39 39 39 42 44 51
49 45 38 40 37 29 28 27 23 35 31 29 40 39 43 40 38 36 34 33 36 33 35 37 37 37 38
38 38 37 32 29 24 24 27 31 34 28 27 39 37 39 38 39 39 38 30 28 29 32 35 36 35 35
38 34 29 27 25 23 20 19 27 36 37 32 36 35 35 37 36 33 29 30 33 37 39 36 39 40 42
32 30 28 28 27 23 23 25 24 32 39 32 38 34 33 32 30 27 26 29 32 37 38 36 38 40 42
26 27 28 29 30 32 31 28 27 26 33 32 35 32 27 31 24 23 23 22 21 23 27 31 35 37 37
24 25 26 28 28 30 33 33 28 30 34 36 33 29 29 22 21 16 21 26 28 29 26 26 27 30 30
25 27 26 28 29 32 32 32 34 34 32 34 29 27 26 26 23 24 29 32 34 35 26 28 25 24 24
29 30 32 30 27 28 31 31 33 30 29 30 24 21 26 31 32 31 29 30 29 30 21 21 20 15 15
30 31 30 30 30 27 26 24 24 26 26 24 18 21 27 32 32 28 26 22 22 20 15 14 11 7 14
29 26 28 28 29 27 25 24 20 15 21 19 13 16 21 25 24 30 39 26 22 23 23 26 32 38 43
25 27 27 26 27 27 25 22 19 13 16 13 10 10 17 20 20 30 29 23 29 33 35 39 43 46 48
26 25 25 26 25 25 25 22 20 12 10 7 6 6 11 14 21 26 24 23 26 26 27 32 36 39 39

GFSFLT2_500_spd_042.txt.gz
Wind_Speed
114 117 116 109 99 96 90 80 67 58 57 54 50 50 52 53 55 56 58 61 65 70 74 78 78 80 80
114 106 96 87 82 70 60 56 54 48 45 45 42 41 40 41 42 43 42 42 44 48 54 61 67 73 76
101 89 78 65 52 48 44 43 46 47 47 45 43 39 36 37 37 37 38 39 40 41 39 42 49 54 60
84 69 52 43 39 39 40 40 38 39 35 35 38 38 38 39 39 39 38 36 32 32 36 39 40 41 44
59 46 40 39 39 34 32 31 32 37 27 30 35 38 41 42 42 41 38 36 36 33 31 33 41 43 44
41 40 40 35 29 28 28 28 24 36 26 28 40 38 37 39 38 35 34 33 32 36 39 35 35 41 49
44 40 32 32 26 23 25 27 31 36 30 31 39 34 39 40 34 31 29 29 30 33 36 37 35 32 38
41 34 30 29 28 27 25 23 27 35 36 36 37 35 35 37 36 33 30 27 26 26 30 34 38 39 39
36 35 36 36 34 31 30 29 25 29 35 37 36 28 30 31 32 30 29 22 19 21 26 32 38 42 42
33 35 37 37 37 38 37 33 31 25 33 30 30 28 19 28 30 32 30 32 32 30 28 30 32 36 34
32 32 34 37 37 37 37 36 34 29 33 31 27 25 29 27 32 32 34 34 35 33 34 37 32 33 33
34 37 36 34 32 34 35 36 37 31 24 28 24 22 28 28 29 36 43 38 33 34 34 31 29 28 30
36 36 34 31 28 29 31 31 34 31 22 23 20 20 25 29 35 40 38 36 30 28 28 31 29 21 19
30 26 26 29 30 28 26 25 26 29 24 16 15 15 20 27 38 38 30 26 25 29 31 31 28 13 4
25 27 29 28 29 27 27 26 23 21 18 14 12 12 16 24 32 29 21 25 29 34 33 32 29 28 20
29 30 27 24 22 26 27 28 24 19 12 8 9 8 15 23 26 15 17 20 22 27 29 32 36 36 32
29 28 26 23 22 23 27 27 28 20 9 7 6 3 8 17 20 20 13 19 19 24 26 29 32 35 36

GFSFLT2_500_spd_045.txt.gz
Wind_Speed
100 105 112 116 110 99 91 80 68 58 52 50 47 46 43 39 39 41 43 42 42 43 48 57 66 73 77
107 111 104 90 81 71 60 54 49 50 51 41 33 36 37 38 39 38 37 35 36 40 43 45 48 52 59
113 93 78 65 51 46 48 47 45 42 38 37 37 36 34 35 34 34 34 37 40 41 41 40 44 47 46
89 74 54 42 44 40 37 39 37 41 29 29 35 35 40 39 36 36 38 38 37 39 42 45 44 43 48
70 51 42 42 38 34 33 30 33 40 28 29 35 34 39 38 40 39 39 40 40 39 41 44 45 44 42
47 40 42 36 32 29 31 30 26 39 30 27 35 34 39 40 37 36 35 36 35 37 38 38 42 46 45
37 42 37 33 31 29 31 30 30 34 35 24 36 33 39 37 35 33 32 30 28 28 29 32 35 39 41
42 38 36 35 34 32 31 29 31 33 36 27 34 30 36 33 34 33 31 32 30 27 29 29 30 33 36
35 36 37 38 37 36 38 36 33 31 35 29 31 25 29 29 33 31 34 35 36 35 30 32 32 33 33
40 38 39 43 43 43 43 40 40 29 35 27 27 24 16 24 28 32 38 37 39 37 31 29 30 31 34
37 41 43 42 40 39 39 39 37 32 32 26 21 21 16 10 25 35 33 31 31 34 35 35 32 31 32
37 36 35 32 31 32 35 35 36 31 27 25 19 18 14 17 27 24 28 30 32 34 34 33 33 36 32
33 32 28 27 29 27 29 28 32 32 28 25 18 17 16 20 25 16 20 26 30 35 38 40 37 36 22
33 31 29 30 29 24 21 23 25 32 32 25 17 13 13 20 17 16 23 22 24 30 35 42 46 40 24
37 33 31 28 27 22 21 23 25 25 26 25 18 12 10 17 18 15 19 18 24 28 32 39 43 45 38
38 34 29 25 22 22 20 22 24 26 22 17 15 13 11 16 16 11 17 14 20 24 29 33 39 41 44
33 29 24 22 21 20 20 21 26 25 21 14 10 9 6 11 14 11 14 11 15 21 27 33 34 37 39

GFSFLT2_500_spd_048.txt.gz
Wind_Speed
88 96 105 113 117 117 105 89 76 60 55 53 46 37 35 35 36 36 38 39 42 44 46 46 46 49 53
94 102 110 114 108 91 76 62 51 52 48 44 42 41 39 36 34 31 36 39 42 44 46 48 50 51 49
103 109 106 94 77 64 48 48 48 43 44 40 35 36 34 32 29 31 31 34 37 42 47 52 54 54 52
111 101 83 66 50 40 41 41 40 39 42 36 33 36 37 34 34 34 36 37 40 43 46 47 47 49 52
96 76 58 40 38 42 35 35 36 39 40 39 34 37 38 37 36 36 38 39 41 41 43 44 44 44 46
72 53 39 38 40 34 32 33 33 39 39 36 39 40 38 39 37 35 35 37 39 39 40 39 39 38 39
48 39 39 38 34 36 34 36 36 38 37 34 39 39 38 39 36 34 32 33 32 36 37 38 38 41 40
40 41 39 40 41 40 42 42 41 41 40 35 39 37 34 39 37 32 29 32 38 42 38 36 35 37 39
42 41 44 45 45 43 41 41 38 34 41 34 38 36 33 37 35 31 28 35 35 32 31 31 33 33 32
44 43 43 44 44 44 42 39 36 29 36 30 33 36 23 35 34 28 30 34 27 29 32 34 37 35 31
39 41 43 42 42 40 38 37 35 31 33 29 28 28 29 22 30 29 30 24 26 30 33 36 38 42 34
41 43 43 43 42 39 38 36 33 28 29 32 29 23 23 21 20 20 21 23 24 26 32 33 36 40 39
43 45 44 42 39 36 35 31 29 31 31 32 33 21 18 15 13 17 14 19 21 27 30 33 35 37 39
44 43 40 38 36 32 28 27 24 28 33 34 32 23 13 13 12 10 13 18 19 25 28 32 36 37 42
38 36 36 35 32 29 26 24 22 21 27 33 32 23 10 10 14 13 12 18 21 22 28 35 36 41 42
36 36 34 32 29 28 26 24 22 23 25 26 26 19 13 11 13 17 14 15 20 17 26 30 36 38 38
36 36 33 31 29 26 24 22 24 24 23 22 21 13 10 11 16 17 10 12 12 18 24 27 30 34 36

GFSFLT2_500_spd_051.txt.gz
Wind_Speed
78 85 91 97 102 108 111 112 102 86 73 59 48 45 42 40 41 41 39 36 34 35 38 41 44 47 48
84 91 98 105 111 113 105 86 73 57 44 46 40 41 39 38 39 36 32 31 33 37 40 40 42 42 44
90 97 104 112 110 93 75 57 45 43 45 41 39 38 36 37 36 33 32 31 35 37 37 36 37 41 45
99 104 111 100 81 64 46 43 45 43 40 40 40 41 38 36 36 35 31 31 35 36 36 36 39 41 45
105 109 89 66 51 42 42 39 40 41 40 40 40 42 43 41 40 37 34 34 35 37 38 39 41 44 46
106 79 57 43 42 44 41 42 42 41 44 40 44 44 46 45 43 41 40 38 38 38 38 38 40 45 45
72 52 43 44 43 43 43 44 43 46 48 41 39 41 44 44 47 45 43 41 39 37 34 37 38 36 34
48 45 44 42 40 41 42 41 40 42 45 40 36 37 36 41 44 43 41 39 35 32 33 32 29 31 33
45 42 41 44 46 46 46 45 41 36 42 38 35 33 30 37 41 38 36 34 31 29 29 28 32 33 34
43 45 46 47 50 51 51 49 44 36 40 34 30 34 24 32 40 38 34 32 28 28 27 29 32 34 34
44 46 49 51 53 52 50 47 41 36 36 30 27 31 32 27 30 32 29 29 29 27 27 28 31 36 36
47 51 52 48 46 43 43 43 40 35 29 26 24 29 29 26 20 22 21 27 25 22 24 26 30 33 38
49 47 44 43 43 41 39 37 33 31 28 24 26 28 31 23 13 17 17 22 20 20 23 24 30 35 39
44 43 43 44 44 41 35 33 28 28 31 26 26 29 29 19 13 11 14 14 15 18 20 25 32 38 41
43 43 44 43 39 37 34 30 29 25 25 28 29 29 29 12 12 13 10 11 16 15 17 26 34 37 40
43 45 44 41 35 33 31 29 27 25 23 24 25 25 26 12 8 10 16 11 14 15 21 26 31 34 38
45 47 47 44 38 33 31 29 27 25 23 21 21 21 15 11 14 16 14 13 13 19 23 27 28 30 34

GFSFLT2_500_spd_054.txt.gz
Wind_Speed
70 73 76 81 87 92 97 103 107 109 104 87 73 56 47 45 42 38 39 39 40 40 37 37 40 41 40
74 78 84 90 95 100 105 109 101 83 66 49 46 45 44 38 38 37 37 38 37 36 34 35 37 37 37
79 85 91 99 103 108 106 84 62 50 47 45 41 40 38 39 39 38 37 35 34 36 36 39 39 39 38
87 93 100 106 109 97 70 49 49 48 45 45 46 47 45 44 41 41 38 36 35 35 36 40 41 42 41
92 100 107 104 86 59 45 45 47 47 44 46 46 47 47 48 48 48 46 44 41 38 37 38 39 40 40
101 106 98 70 49 46 45 42 39 47 46 43 46 44 46 45 46 49 46 45 47 45 42 41 40 40 39
105 87 57 47 42 41 45 46 48 52 51 46 47 41 43 40 43 44 43 42 42 44 43 42 42 39 35
75 50 44 42 46 47 49 50 52 55 58 54 47 41 38 38 41 40 40 38 38 39 38 37 37 34 34
47 43 44 47 51 54 56 56 50 46 51 48 43 40 33 33 37 38 37 35 34 33 30 29 29 31 27
43 45 49 53 55 54 50 45 45 42 48 42 38 36 26 26 34 38 37 36 32 27 22 22 24 24 24
42 46 47 47 48 50 50 50 47 43 44 40 30 26 26 20 27 35 37 34 27 24 21 18 21 25 27
42 43 45 45 47 49 50 49 45 42 38 36 27 24 22 21 26 32 33 26 22 23 23 23 26 29 27
41 44 45 46 47 47 50 47 40 39 37 33 28 22 21 23 24 27 21 21 23 25 21 24 26 25 27
43 47 48 49 50 51 48 45 37 34 37 33 28 22 21 25 25 16 15 16 22 26 21 23 24 26 31
48 50 51 50 51 51 48 41 36 32 30 31 30 26 24 22 17 13 12 14 18 19 18 16 23 29 33
52 53 51 51 51 47 42 35 30 28 28 26 22 22 25 25 8 10 11 12 13 14 13 17 23 31 33
53 52 52 52 46 40 36 32 27 26 27 24 19 19 15 17 14 7 7 13 12 16 18 22 23 28 30

GFSFLT2_500_spd_057.txt.gz
Wind_Speed
67 67 69 71 73 79 85 88 93 99 103 108 108 97 75 54 48 45 45 45 42 41 42 43 42 42 44
65 67 70 75 80 86 91 96 103 107 109 92 71 52 48 48 44 42 41 41 41 41 41 41 41 40 40
67 72 76 83 88 92 98 103 104 94 67 55 51 51 48 47 46 48 45 45 44 42 41 40 40 39 39
72 79 85 90 94 97 101 95 64 55 52 52 47 47 47 47 46 46 45 45 47 48 46 43 40 40 42
80 86 91 95 99 101 83 53 48 48 47 50 50 51 53 52 51 50 48 45 43 44 48 49 47 43 42
85 92 97 101 99 70 47 43 43 53 53 56 58 56 57 57 57 57 53 48 44 41 42 46 48 46 45
93 100 102 89 60 43 44 47 51 54 56 54 52 49 50 48 51 52 51 48 42 40 39 41 43 44 43
102 101 77 47 43 44 47 48 48 49 53 51 51 49 47 46 50 47 44 42 39 37 36 38 40 41 41
99 69 43 43 46 47 47 48 46 47 53 50 51 45 41 41 45 43 39 36 34 31 33 36 38 37 36
54 42 43 46 48 49 51 51 51 50 55 50 49 43 33 31 39 40 34 32 28 31 34 32 31 32 32
37 40 45 48 50 53 56 56 54 53 55 53 47 38 33 28 29 33 32 32 32 34 31 26 23 24 27
37 43 47 50 53 56 57 57 55 53 52 53 43 35 30 25 25 28 33 34 33 30 22 16 15 17 22
41 46 50 53 57 58 56 55 52 52 52 46 37 31 28 24 20 26 27 32 33 17 18 19 20 20 20
46 52 55 59 59 57 55 53 48 43 42 39 33 27 25 24 22 22 26 25 24 18 19 25 22 23 23
52 56 59 57 56 53 48 43 38 34 30 31 27 24 23 22 17 19 19 17 17 20 25 23 26 25 22
56 58 58 54 49 46 41 37 32 27 24 24 19 19 22 27 12 11 12 13 17 19 18 17 20 26 24
56 55 52 51 47 40 35 30 25 20 19 14 13 15 14 16 19 6 12 14 14 16 18 18 19 25 27

GFSFLT2_500_spd_060.txt.gz
Wind_Speed
65 66 66 66 65 68 72 75 79 83 87 92 96 100 104 105 96 78 61 52 50 51 47 46 45 43 43
67 68 68 68 71 73 77 82 86 91 98 103 107 105 89 67 56 52 50 50 49 50 50 50 49 47 45
68 68 69 71 74 77 81 87 94 102 107 107 94 69 56 52 51 49 50 50 48 48 48 48 52 52 49
68 69 71 75 77 83 88 96 101 108 95 67 55 53 55 56 56 58 59 58 57 53 50 49 48 51 52
71 73 77 80 86 92 99 103 100 76 53 48 53 55 56 56 57 57 59 59 59 58 55 53 51 49 49
75 79 83 89 94 101 105 90 55 52 49 48 54 52 52 53 55 57 58 57 54 49 48 50 50 50 49
82 87 90 96 101 101 74 47 43 49 50 47 53 51 54 56 59 61 60 55 49 47 46 43 45 47 47
89 94 100 102 91 62 43 43 47 51 55 51 53 53 55 57 60 61 59 53 46 44 42 39 39 41 40
96 102 98 76 50 44 47 50 51 53 60 58 58 57 56 52 56 57 54 49 43 37 32 30 32 34 36
98 86 60 45 48 51 54 56 58 57 64 63 62 62 54 47 47 47 46 48 39 30 26 26 29 32 35
68 45 44 49 53 58 63 66 66 66 67 66 58 57 55 48 38 39 40 42 37 29 25 26 30 36 33
39 43 47 53 60 65 68 70 67 63 58 56 52 47 39 31 27 29 34 37 34 31 30 30 32 25 21
42 47 53 59 65 67 66 64 57 53 50 46 43 36 27 21 19 24 26 29 33 28 31 28 22 18 16
46 53 60 62 61 61 59 55 46 39 41 40 37 27 21 20 20 18 22 22 29 33 24 16 19 19 13
52 56 53 52 51 48 46 41 35 30 28 31 29 21 18 20 18 20 15 21 24 20 19 17 19 21 18
49 46 42 42 42 41 38 36 29 23 18 16 15 15 20 24 23 3 9 13 12 14 19 18 19 27 23
43 39 36 37 37 37 34 33 29 25 20 14 13 14 14 16 23 6 8 15 12 20 24 22 18 26 32

GFSFLT2_500_spd_063.txt.gz
Wind_Speed
64 66 66 66 67 69 70 71 72 74 76 78 80 84 88 93 97 101 106 105 93 75 64 58 57 56 56
66 67 69 70 71 71 71 73 76 79 82 84 88 93 97 101 106 107 86 64 53 51 51 52 53 52 52
68 70 70 70 71 73 75 78 82 87 91 94 99 103 107 105 86 59 50 50 51 53 55 57 59 59 57
70 71 71 72 75 77 79 85 88 96 100 103 108 105 85 64 50 51 52 52 52 50 49 51 52 55 59
70 70 72 75 79 83 87 91 97 105 109 103 84 61 50 52 53 54 54 54 53 51 51 53 55 55 56
72 74 77 82 86 91 96 101 104 95 79 57 51 48 52 53 56 58 59 59 57 56 56 58 58 58 56
75 80 84 89 94 100 104 97 79 56 50 45 52 52 57 57 61 62 64 65 63 61 60 57 55 54 53
82 87 92 98 104 99 78 58 49 52 59 54 59 59 60 61 64 67 68 67 65 63 57 52 49 44 44
89 95 100 98 83 62 53 56 57 60 66 71 69 68 67 64 64 64 63 62 60 57 54 45 37 37 36
97 98 83 60 53 58 62 66 71 72 75 77 71 70 64 55 52 51 52 55 56 55 47 36 31 30 30
91 67 48 51 58 63 69 71 68 66 65 67 57 49 46 40 36 38 41 44 46 42 37 30 24 24 26
53 42 47 54 61 60 57 58 58 59 57 52 43 35 32 29 26 23 30 33 33 34 32 26 20 20 24
38 44 50 53 50 46 48 49 48 48 50 41 32 27 24 18 12 16 21 25 32 30 28 25 24 23 24
39 45 45 44 41 40 41 41 40 39 42 38 30 24 18 15 14 15 19 16 24 30 30 22 15 14 13
40 38 37 35 35 35 37 39 38 34 31 33 32 28 26 27 18 15 7 13 22 17 13 13 14 16 15
35 34 31 32 33 34 33 34 35 35 32 30 27 25 28 30 20 11 14 14 17 16 15 14 19 22 15
32 30 29 30 30 31 33 33 34 35 34 31 29 25 21 21 28 28 17 15 17 21 23 24 22 24 25

GFSFLT2_500_spd_066.txt.gz
Wind_Speed
62 64 66 66 66 68 69 70 71 71 72 73 74 74 76 79 81 85 89 93 97 99 102 104 107 107 95
65 65 66 68 68 69 71 71 71 73 75 77 79 83 86 90 94 97 102 104 105 104 100 89 77 60 55
65 65 67 68 70 71 71 71 74 77 82 86 89 94 98 103 107 106 103 95 86 72 55 49 49 51 52
65 66 69 71 71 73 73 75 78 84 90 95 100 105 105 102 95 81 68 55 47 45 46 48 50 50 50
66 68 70 71 73 75 77 81 85 93 99 101 98 87 74 62 54 53 52 52 51 51 51 52 52 52 52
67 69 71 74 76 80 84 88 94 100 95 71 62 61 64 63 62 62 61 61 59 58 58 57 56 57 57
69 72 75 79 81 86 92 97 92 72 61 59 69 68 71 72 72 72 71 69 66 64 63 62 61 61 60
72 76 79 83 88 92 94 77 58 63 69 63 63 62 64 65 66 68 68 67 65 66 64 63 63 62 59
78 81 85 90 92 85 62 54 56 54 55 55 54 57 60 56 51 51 52 54 56 55 54 55 54 52 49
82 87 91 86 69 51 53 49 43 42 49 46 49 54 50 35 25 30 36 42 45 46 44 42 40 33 28
86 89 73 51 45 50 47 42 43 43 46 44 42 44 44 37 21 25 30 34 37 36 34 28 22 19 19
83 60 40 41 45 43 40 41 43 41 41 43 42 39 35 31 26 26 28 27 25 26 26 25 21 17 16
41 31 36 41 38 36 38 39 41 42 41 40 40 41 40 34 21 26 22 25 30 26 25 26 23 17 15
26 32 37 35 34 34 35 36 38 41 46 44 41 39 37 32 24 18 24 17 23 26 21 13 7 10 11
28 33 31 32 32 32 34 36 38 38 39 41 41 38 38 39 32 24 15 20 22 22 20 17 17 14 14
30 29 29 30 29 31 33 35 36 40 40 39 35 32 33 36 38 35 34 26 25 25 24 21 21 24 17
27 27 28 28 27 28 32 32 36 39 41 40 35 30 26 28 36 36 27 28 26 27 26 22 20 28 24

GFSFLT2_500_spd_069.txt.gz
Wind_Speed
61 63 59 64 62 66 67 65 66 69 70 71 72 71 72 72 74 76 78 81 84 87 91 94 96 98 100
56 56 59 62 65 64 64 66 70 70 71 72 72 73 77 80 83 86 90 93 97 100 102 105 107 106 106
57 60 62 61 66 65 67 68 70 71 72 74 77 81 85 90 95 99 100 100 100 97 89 81 77 74 71
58 64 66 66 68 67 68 70 70 73 76 80 85 91 97 100 94 86 80 75 73 72 68 62 57 52 48
68 67 68 68 69 68 68 70 73 78 80 87 92 93 81 73 73 72 72 73 74 73 72 66 60 54 52
66 65 67 67 67 68 72 74 77 85 87 89 82 64 63 58 62 66 69 71 73 73 74 71 66 62 60
66 66 65 67 69 74 78 81 86 88 86 67 57 49 53 57 60 62 61 58 54 54 60 61 62 65 64
65 68 70 73 76 79 83 86 85 65 56 41 44 46 50 53 53 56 57 51 46 45 40 41 46 51 58
68 72 76 80 83 86 86 73 51 47 42 40 41 42 43 48 49 49 50 49 45 40 38 32 28 32 38
76 79 84 88 86 71 52 39 40 33 39 39 38 42 39 43 45 46 43 46 43 36 31 25 20 19 22
85 88 82 65 47 37 36 36 33 34 40 38 38 40 42 38 41 42 42 40 38 37 34 28 21 16 13
77 60 41 32 32 37 36 34 34 36 39 39 40 43 41 37 35 37 36 39 33 31 32 27 20 13 12
38 27 26 32 35 33 33 31 34 38 40 42 43 42 42 39 33 31 24 33 33 34 33 28 20 19 16
23 28 32 32 30 29 29 30 32 37 40 42 43 42 40 36 33 29 24 22 23 27 28 28 27 20 16
29 30 27 29 30 29 28 29 33 32 34 39 41 39 39 41 34 31 27 27 24 26 26 27 29 25 21
26 25 27 29 29 29 28 29 30 34 37 37 37 35 34 36 40 33 32 30 32 30 25 21 25 32 27
26 26 27 29 28 26 25 27 30 33 37 39 40 36 29 28 38 39 32 26 21 20 17 20 22 28 26

GFSFLT2_500_spd_072.txt.gz
Wind_Speed
56 53 50 56 59 65 64 62 62 65 69 70 71 70 70 70 71 71 70 72 75 78 81 85 88 91 94
51 55 64 57 60 60 63 63 66 71 73 72 70 70 70 70 71 74 77 80 83 87 91 96 99 100 100
59 57 59 61 62 60 62 70 69 69 70 71 71 73 74 75 78 81 84 88 93 92 88 82 78 76 77
59 59 56 58 62 68 67 67 67 69 70 71 74 78 80 81 86 90 90 84 74 64 62 65 70 74 77
53 57 62 68 67 67 67 67 68 72 73 76 81 85 88 90 87 81 69 58 57 58 57 63 70 71 72
59 63 63 64 65 65 67 69 72 78 80 83 89 88 78 65 60 53 52 54 53 53 50 56 61 63 64
57 60 61 63 65 68 72 75 79 86 89 89 79 57 51 49 51 53 53 54 54 49 45 51 53 52 50
57 59 62 66 71 75 79 84 89 87 78 61 44 41 42 48 50 53 56 53 51 46 41 42 45 44 41
61 64 69 74 77 82 86 82 68 47 41 34 35 34 39 44 47 53 55 52 47 44 40 37 38 38 35
67 72 76 81 82 74 60 38 32 34 34 26 32 36 33 39 44 48 48 46 42 42 39 34 31 33 31
75 78 76 66 51 34 31 33 32 29 29 27 31 34 35 38 39 44 41 40 38 40 38 36 33 30 28
69 57 44 34 32 34 33 29 30 28 29 30 32 34 36 38 36 37 36 38 36 33 36 40 38 34 27
37 34 36 38 34 29 30 30 30 29 31 33 33 35 39 41 37 35 31 34 33 33 32 33 35 36 32
38 37 34 29 29 30 31 31 31 31 35 33 35 37 39 42 40 34 32 30 33 32 31 35 33 30 29
34 32 29 29 30 32 30 29 28 28 30 33 35 36 38 40 39 37 35 35 31 26 24 27 30 27 22
33 31 29 29 31 30 28 27 27 29 31 32 33 34 37 40 42 35 35 33 30 28 25 21 25 29 23
32 31 28 28 28 27 27 27 29 31 33 34 34 34 33 33 40 41 32 30 24 25 25 24 22 25 21

GFSFLT2_500_spd_075.txt.gz
Wind_Speed
53 62 60 62 63 60 58 59 55 57 58 60 58 59 62 68 71 69 69 70 72 72 72 73 75 77 79
65 63 62 60 57 58 58 65 59 53 56 60 63 68 70 69 68 68 70 72 73 75 77 80 82 84 88
63 61 58 56 55 57 60 57 56 60 64 67 68 68 68 68 69 71 74 77 79 82 84 88 90 91 90
56 53 55 59 59 58 58 62 63 65 66 67 67 69 71 74 76 77 80 84 88 90 85 74 62 58 60
56 59 58 55 57 59 61 60 61 63 64 67 70 75 78 81 84 87 88 85 73 58 48 50 53 55 59
53 54 56 56 56 57 59 61 63 69 70 75 78 81 85 86 82 71 57 45 40 45 46 49 52 54 55
50 53 55 54 55 59 62 65 71 76 76 79 83 77 65 51 44 40 37 40 45 44 44 45 46 47 47
50 52 56 59 63 66 70 74 78 78 77 69 51 38 37 39 36 38 41 44 44 44 43 42 41 38 40
54 58 62 65 69 73 73 70 62 50 45 36 36 29 30 35 36 39 40 43 44 46 45 43 43 39 36
57 62 66 68 66 59 47 39 37 38 37 27 33 30 25 34 38 39 41 43 44 43 44 45 41 38 35
61 63 57 48 44 45 43 39 34 31 29 28 29 29 30 31 35 38 39 41 41 42 42 43 43 40 34
53 44 44 42 42 38 32 30 32 31 32 29 28 29 31 32 33 37 39 39 37 35 37 39 39 37 36
43 39 39 41 36 34 33 32 35 32 31 29 28 29 31 33 33 36 37 35 36 32 32 31 29 29 28
38 36 38 39 35 31 32 34 32 31 31 30 30 31 32 35 36 35 36 31 31 31 26 28 30 27 27
35 35 36 36 35 32 31 30 29 28 30 33 33 31 32 37 34 36 33 31 31 28 25 24 30 35 31
35 35 36 35 34 33 31 30 29 29 32 33 31 29 32 37 42 38 36 34 34 34 34 28 30 37 33
34 33 34 33 33 32 30 29 28 30 33 33 30 29 27 30 37 43 37 36 31 31 33 28 23 25 25

GFSFLT2_500_spd_078.txt.gz
Wind_Speed
54 57 59 65 63 67 65 62 60 60 57 54 57 60 61 56 54 55 57 61 64 67 68 69 70 70 70
70 71 68 72 70 65 62 60 56 56 58 61 61 57 56 59 61 62 61 63 64 66 67 69 71 73 75
61 61 61 61 61 59 61 58 59 60 60 59 58 57 58 59 60 61 62 65 67 70 72 74 77 81 83
54 54 53 54 54 56 57 59 58 58 59 58 56 58 60 62 64 67 69 72 74 76 79 82 84 83 77
48 47 49 50 52 52 53 53 53 54 56 60 60 63 67 70 73 75 76 79 81 81 76 65 51 43 43
45 46 50 52 48 49 52 54 56 60 61 68 67 72 75 77 76 76 74 67 56 46 36 34 38 41 42
42 42 43 46 49 52 56 59 63 65 65 69 70 68 66 58 52 47 42 37 33 33 36 37 38 40 42
39 42 45 49 53 57 61 64 66 65 60 50 48 42 42 43 39 34 33 32 35 35 35 38 39 40 40
39 44 48 53 58 59 55 50 48 49 46 42 42 36 36 37 35 33 31 35 34 34 37 39 39 39 39
43 47 53 57 53 47 44 43 41 38 34 29 34 30 28 34 33 33 35 35 35 36 40 41 40 40 38
46 50 54 50 43 40 40 38 35 36 32 31 32 31 29 28 33 35 33 35 36 39 40 38 37 35 34
47 50 52 44 40 39 39 38 34 32 35 30 25 25 24 26 29 32 33 35 35 36 35 35 34 30 26
46 49 46 40 38 38 38 38 36 33 33 29 26 26 27 28 28 29 28 33 36 34 34 34 33 33 31
44 46 42 41 38 38 37 36 35 34 34 31 29 29 30 30 29 29 31 30 31 33 33 35 35 37 35
44 44 40 39 38 36 35 34 33 31 31 30 31 32 33 31 30 31 29 31 32 35 35 31 35 35 31
41 40 38 37 37 36 34 32 30 30 28 28 28 29 29 33 34 30 32 34 36 37 36 29 29 30 23
38 39 38 36 35 34 33 32 31 29 30 30 30 30 28 27 34 38 32 33 34 33 29 24 19 22 19

GFSFLT2_500_spd_081.txt.gz
Wind_Speed
48 54 62 61 63 64 67 71 63 61 58 59 58 57 55 52 53 56 56 56 55 56 55 57 60 62 64
55 51 52 54 55 57 57 58 57 55 53 54 55 54 56 56 56 56 54 56 58 59 60 61 64 65 66
43 46 48 53 54 55 53 52 51 53 52 53 51 51 50 50 51 52 53 56 57 59 61 63 65 68 70
39 41 41 42 42 45 46 49 53 53 53 50 52 53 54 57 58 58 60 62 63 65 67 70 73 75 78
38 38 40 42 44 47 47 45 48 50 53 56 59 62 64 66 67 67 68 69 70 71 72 74 75 75 73
40 38 37 37 39 41 43 46 49 52 59 62 64 67 68 68 67 66 63 59 56 53 50 46 41 39 38
35 34 36 37 39 42 45 51 56 58 62 63 58 57 56 55 53 53 51 48 42 37 33 32 33 36 37
35 37 36 38 41 45 51 54 57 55 49 49 49 48 47 45 41 38 34 32 33 32 30 33 35 34 36
36 37 38 39 43 47 50 53 51 48 44 41 38 37 40 39 39 36 33 30 29 31 33 33 35 36 38
36 37 38 41 44 47 50 51 44 43 40 38 37 33 36 38 37 34 31 30 31 31 31 33 36 37 38
37 38 40 40 43 45 46 44 43 39 37 35 33 31 29 28 32 32 32 34 33 33 33 37 38 37 35
39 39 40 43 44 44 43 41 40 38 36 34 31 28 27 27 28 33 34 35 35 35 36 37 37 36 35
39 40 41 42 43 44 43 41 39 37 35 32 30 27 27 27 28 32 31 33 33 32 35 37 38 38 38
39 41 42 42 43 43 42 41 39 37 35 32 30 27 27 28 29 28 30 29 30 32 32 34 38 39 36
39 41 41 42 42 43 43 41 37 36 36 34 31 29 29 29 28 28 27 29 29 30 31 34 40 35 31
40 40 41 42 44 46 46 40 37 37 37 35 33 30 30 33 33 28 29 28 28 30 31 32 34 34 26
40 41 42 43 45 48 47 40 38 38 38 36 34 31 30 28 35 34 29 30 27 31 32 32 27 30 25

GFSFLT2_500_spd_084.txt.gz
Wind_Speed
44 46 43 46 48 48 44 45 45 46 47 49 51 51 49 49 49 52 54 53 52 54 55 56 57 58 59
40 39 39 38 37 41 45 43 43 40 40 41 43 44 47 47 48 51 50 50 51 54 55 56 57 58 59
29 28 31 34 38 38 40 40 41 43 43 45 47 43 44 45 47 48 50 52 52 53 55 55 58 59 60
32 32 31 32 38 40 40 40 40 38 39 43 44 46 49 52 54 56 57 59 60 61 62 63 65 66 68
34 33 36 37 37 37 38 39 39 41 44 48 53 56 59 62 65 66 66 64 61 60 60 62 63 66 69
35 36 36 35 36 38 39 40 42 45 49 53 57 58 59 59 57 54 53 53 53 52 53 52 50 47 47
35 36 37 38 40 39 40 42 43 45 49 51 54 55 52 50 48 47 44 42 39 36 35 35 36 35 35
36 37 38 39 39 39 40 42 43 45 48 49 50 49 50 47 45 41 39 39 38 36 34 32 32 32 33
38 38 39 39 39 40 41 42 44 45 46 46 46 44 45 44 42 38 37 34 31 31 31 31 31 33 36
40 40 40 41 41 41 41 42 42 44 45 45 45 42 41 43 41 38 35 32 29 29 29 31 33 33 34
41 41 42 41 41 41 41 42 43 43 45 45 43 39 36 36 38 36 34 35 34 35 34 32 32 32 33
42 43 43 41 41 41 42 42 43 44 46 46 42 39 36 33 31 33 31 33 33 34 33 34 35 34 34
43 45 44 41 41 41 42 42 45 46 48 47 41 38 36 34 31 31 29 30 33 31 33 34 34 36 34
45 48 44 41 41 42 42 44 46 49 50 49 41 37 37 36 34 31 30 28 29 30 28 31 34 36 34
49 48 44 42 42 43 44 46 47 49 51 49 41 37 38 37 35 34 30 31 29 29 28 31 35 37 36
49 46 44 43 44 44 44 46 49 51 50 46 41 37 37 37 36 34 31 31 30 32 30 29 30 36 36
47 45 44 44 45 46 46 48 52 52 49 44 40 36 33 33 36 38 32 34 32 32 31 30 29 36 36

GFSFLT2_500_spd_087.txt.gz
Wind_Speed
43 41 38 36 35 36 34 34 36 38 37 37 36 36 37 37 37 38 39 41 44 45 46 47 51 53 53
44 41 38 38 41 37 35 33 34 39 38 37 37 35 35 35 36 38 40 41 44 45 46 49 50 51 52
40 38 38 39 38 36 37 39 39 37 35 36 36 37 38 39 42 45 48 50 52 53 54 56 57 57 59
40 39 38 37 37 37 37 37 37 37 38 39 38 41 42 46 48 50 51 52 54 56 57 59 61 63 66
36 35 35 36 37 38 38 39 40 38 39 39 42 44 48 50 53 52 54 54 51 49 48 49 50 52 55
34 36 37 38 39 40 40 41 41 41 43 44 46 46 47 48 49 52 52 48 45 46 45 43 42 42 43
35 37 39 41 42 42 42 42 42 43 44 44 44 44 45 46 49 51 49 44 43 41 40 41 41 40 39
37 39 41 43 43 43 43 43 43 43 43 44 44 47 44 45 50 51 46 41 41 37 37 35 35 34 35
38 40 42 43 42 43 43 44 43 42 42 42 45 44 46 47 49 49 43 40 39 36 33 32 32 31 32
40 42 42 42 42 43 46 44 42 42 43 43 44 45 48 50 50 47 41 38 37 34 31 31 31 32 33
41 42 42 42 44 47 48 44 43 43 43 44 45 46 48 49 48 46 42 39 36 35 32 31 32 30 29
43 43 42 44 48 49 46 44 44 44 44 45 46 47 48 48 43 45 42 40 37 36 34 33 32 28 26
44 43 43 47 50 48 43 43 44 45 45 46 47 49 50 48 43 43 40 40 39 37 34 34 32 31 29
44 44 47 49 50 44 42 43 44 46 46 47 49 50 52 50 45 42 41 37 37 36 34 34 34 32 30
44 46 48 52 48 43 42 43 44 46 49 50 52 55 52 47 43 40 38 36 35 35 35 33 35 33 32
45 48 51 53 46 44 43 44 45 47 50 54 58 57 50 44 41 38 37 35 36 34 34 31 32 36 34
46 51 55 49 44 45 45 45 46 48 54 58 58 52 45 39 37 38 34 34 34 33 33 33 30 33 35

GFSFLT2_500_spd_090.txt.gz
Wind_Speed
43 42 43 44 41 39 40 39 39 36 36 37 37 36 35 33 32 32 32 32 33 35 37 39 42 44 47
43 41 41 40 40 40 38 36 36 37 37 36 35 35 35 34 34 34 35 36 38 40 42 45 47 49 51
41 40 39 38 37 35 36 36 37 37 38 39 39 39 38 37 39 39 40 42 44 47 48 49 51 52 54
39 37 35 34 34 36 37 38 40 41 41 43 41 41 40 41 41 42 43 44 44 44 48 50 52 53 54
34 33 34 33 36 38 39 40 42 42 44 42 42 42 42 43 44 45 44 45 42 45 48 50 50 48 47
34 34 33 35 36 38 40 43 44 43 42 42 43 43 43 43 43 44 46 44 44 46 49 49 45 45 45
33 33 34 36 38 40 42 44 43 43 43 44 45 44 43 42 44 45 44 43 43 45 47 45 43 43 42
33 35 36 37 39 42 43 44 43 43 46 47 45 44 42 43 44 44 44 43 44 45 45 42 41 40 39
34 36 37 39 41 43 45 44 45 47 48 46 44 43 44 45 45 46 46 46 46 46 44 40 38 36 35
35 37 39 41 43 44 45 46 49 50 47 42 42 42 43 44 47 47 47 48 48 47 43 39 37 34 32
37 39 41 43 44 45 45 47 50 51 44 41 42 41 42 44 48 49 50 52 52 50 43 38 37 33 30
39 41 42 44 45 46 48 51 54 48 42 40 41 41 42 43 46 49 53 54 51 46 41 38 38 34 31
40 42 44 46 46 46 50 54 50 45 43 42 42 41 42 44 46 51 53 50 48 43 38 37 37 35 32
41 43 45 46 45 48 52 51 46 45 44 44 43 42 43 48 50 51 51 46 44 39 35 35 35 34 33
42 44 45 46 47 51 51 49 45 45 46 46 44 44 45 49 51 50 47 45 42 36 34 32 35 35 34
43 44 45 46 50 51 49 48 47 47 48 49 49 49 48 51 51 47 46 43 40 34 32 28 28 34 32
43 44 46 49 51 51 50 48 48 48 49 49 50 50 49 50 49 48 45 43 40 34 32 28 26 28 28

GFSFLT2_500_spd_093.txt.gz
Wind_Speed
38 38 39 39 40 40 39 38 36 34 35 36 36 37 39 39 38 37 36 34 33 34 34 35 37 39 40
37 39 38 39 40 38 36 33 32 34 35 36 39 41 41 41 40 38 37 36 37 37 39 40 41 42 42
37 37 37 37 35 33 33 32 33 35 36 38 40 42 43 42 40 40 39 39 38 39 40 41 42 43 44
35 35 35 33 32 32 31 33 34 36 38 40 42 44 44 43 43 43 42 41 41 41 42 43 44 44 48
34 34 32 30 30 30 32 34 36 37 39 40 44 45 44 43 44 44 43 41 40 42 44 46 44 46 46
33 31 30 30 30 31 33 36 37 38 42 43 45 46 46 47 47 45 41 40 41 43 45 45 45 44 44
31 29 29 29 31 33 35 37 38 40 44 45 46 47 47 47 44 43 41 42 43 44 46 47 47 46 47
29 29 29 31 33 35 36 37 40 43 46 48 49 50 48 44 42 41 41 42 42 44 46 47 47 47 48
29 30 31 34 36 37 38 38 41 45 47 48 49 48 45 41 41 41 40 40 41 42 44 45 47 50 49
30 31 33 36 37 38 39 41 44 48 48 47 47 47 42 41 42 41 41 40 40 40 43 48 50 49 45
31 33 35 36 38 39 40 42 46 49 46 45 46 44 41 41 43 42 42 42 42 44 47 48 47 44 41
32 34 36 38 39 40 42 44 48 47 44 43 45 44 42 40 41 43 44 44 46 49 48 46 44 41 38
32 35 37 39 39 41 43 46 49 46 45 45 44 43 42 42 42 44 46 47 48 49 48 44 42 40 35
34 36 38 39 40 42 45 47 48 46 46 46 45 44 44 43 44 45 47 46 48 48 45 43 42 39 33
35 37 40 42 42 44 46 48 49 50 49 48 47 46 45 46 47 48 48 49 48 46 45 42 40 38 32
36 38 41 42 44 46 48 51 52 51 52 52 51 51 50 50 52 51 51 51 49 46 44 40 36 38 32
39 41 42 43 45 48 50 52 52 52 53 55 55 55 55 54 55 56 55 54 50 48 44 40 34 35 33

GFSFLT2_500_spd_096.txt.gz
Wind_Speed
36 34 35 37 37 38 38 38 35 33 31 31 32 33 34 36 37 38 41 41 41 40 39 39 39 39 39
33 34 36 37 38 37 37 35 32 32 31 32 33 34 36 37 39 41 43 42 42 41 41 41 42 42 43
34 35 37 38 37 37 34 33 32 31 31 32 33 35 36 37 40 42 43 42 43 44 44 43 42 43 43
35 36 37 36 36 35 32 32 31 31 32 33 35 37 38 40 42 44 45 44 45 46 46 44 42 41 42
35 35 36 35 35 33 31 31 31 33 34 35 36 37 40 43 44 46 46 46 46 44 42 41 41 41 42
34 34 35 35 33 31 31 31 32 36 36 36 37 39 44 46 44 44 46 47 44 41 39 40 42 43 43
34 34 34 34 31 30 32 33 35 36 37 37 39 42 46 45 44 45 46 46 42 41 41 42 43 44 45
33 34 33 31 30 31 33 35 36 37 38 39 41 45 45 42 43 44 45 44 42 41 42 42 43 44 44
33 33 30 30 30 32 33 34 36 39 40 42 44 46 41 42 44 42 42 42 41 41 42 41 42 42 43
31 30 29 30 31 32 34 36 38 40 42 44 47 45 42 44 44 42 41 40 39 39 41 42 43 44 46
28 28 29 30 31 32 35 38 40 41 43 45 48 45 44 46 47 46 45 43 42 43 43 43 45 45 45
26 27 28 29 32 34 37 39 41 43 44 47 48 46 46 47 48 49 48 47 47 48 46 45 45 46 46
27 28 29 31 34 36 38 40 42 44 47 49 49 47 47 48 48 51 51 51 51 51 50 49 48 47 46
29 30 31 33 35 37 39 42 43 45 48 50 49 49 50 51 52 53 55 54 57 57 55 53 52 50 47
30 30 32 34 36 38 40 42 44 48 50 49 49 52 54 56 56 59 59 60 60 61 59 56 53 50 47
29 32 33 36 38 39 41 42 46 50 51 52 55 57 57 57 60 61 62 62 62 61 60 56 52 51 47
33 35 37 38 40 41 42 44 49 52 52 54 56 56 56 57 59 61 62 63 63 63 63 60 53 51 47

GFSFLT2_500_spd_099.txt.gz
Wind_Speed
43 43 43 39 35 33 36 38 38 38 36 33 32 30 30 32 33 34 35 36 39 40 42 42 40 39 39
45 41 38 36 32 35 38 37 37 36 35 32 31 30 32 35 35 37 37 39 41 42 43 42 41 42 42
42 37 36 30 34 37 37 37 37 34 33 31 31 32 35 36 36 37 38 41 42 42 42 43 44 43 43
36 40 32 33 36 35 35 36 35 33 32 31 32 34 35 37 38 38 41 43 42 42 43 44 45 43 41
39 32 34 35 35 34 34 36 33 33 31 32 34 36 37 38 38 40 43 42 41 41 41 43 44 41 39
30 34 34 35 34 33 34 34 32 32 32 33 35 36 37 38 39 43 42 40 40 40 39 40 41 41 40
34 31 33 34 32 33 34 33 31 32 33 34 35 37 38 39 41 44 40 40 41 40 39 39 39 40 40
30 31 33 32 32 33 32 30 31 32 33 35 37 38 39 41 44 44 40 41 42 42 42 42 41 40 40
31 31 31 31 31 31 29 30 31 31 34 34 36 38 40 43 46 46 42 42 44 44 43 43 43 43 43
30 29 29 29 29 28 28 29 30 33 34 35 38 40 42 45 48 46 44 45 46 45 44 45 45 45 45
27 27 27 27 27 28 28 29 32 33 35 37 39 41 44 47 49 47 49 50 50 50 50 50 49 49 50
26 26 28 29 29 28 29 31 32 34 37 39 40 42 46 48 50 51 54 56 56 56 55 53 53 53 53
26 28 29 29 29 29 29 31 34 36 38 39 40 44 48 48 50 55 57 58 57 57 57 58 57 57 57
29 30 30 30 29 29 30 33 36 38 39 40 42 46 47 50 53 54 56 56 59 61 59 58 58 58 57
29 30 30 30 30 31 33 36 38 39 41 41 43 45 49 52 52 53 56 61 61 58 56 56 59 60 59
29 31 31 31 32 34 35 37 40 41 42 42 44 46 50 51 51 56 61 62 60 55 55 59 58 62 59
31 31 33 34 34 35 37 39 42 43 42 43 45 47 50 50 53 58 61 61 56 53 58 61 60 58 53

GFSFLT2_500_spd_102.txt.gz
Wind_Speed
44 44 44 45 43 41 37 34 33 33 33 37 35 34 31 29 28 29 31 31 33 34 35 37 37 38 37
45 44 44 43 42 34 34 30 32 35 35 35 33 32 29 27 28 29 31 32 35 36 38 39 39 38 37
44 44 41 43 34 34 32 30 35 34 34 32 31 30 28 28 29 30 32 34 36 37 39 39 38 38 36
42 39 41 33 36 33 29 33 33 33 32 31 30 28 28 29 30 31 33 35 36 39 39 38 38 38 37
40 33 34 35 32 27 32 32 31 31 30 29 28 28 29 30 31 32 34 36 38 40 39 38 39 39 39
33 36 33 29 27 31 31 30 28 30 28 26 27 29 29 30 32 33 35 37 40 41 40 40 40 41 42
43 37 31 30 29 30 29 28 28 28 26 26 28 28 30 31 32 34 36 39 42 42 40 40 42 44 44
31 27 29 29 28 27 27 27 27 26 25 26 26 29 30 32 33 35 38 41 43 43 41 43 46 47 47
28 27 27 27 26 26 26 26 25 25 25 25 27 30 31 34 36 37 40 43 44 43 45 48 50 51 51
26 25 26 26 25 25 25 25 24 26 26 27 29 31 34 36 38 39 42 44 45 48 51 51 50 48 49
25 25 25 25 24 24 25 26 25 26 26 28 31 33 36 38 39 41 43 44 49 52 48 46 50 53 53
25 25 25 24 24 25 25 25 26 26 27 29 32 34 37 38 40 42 42 47 51 49 48 53 55 54 52
26 25 25 25 25 27 26 26 27 27 29 33 34 35 37 38 41 43 45 50 52 51 53 56 55 52 49
26 25 26 26 28 27 27 28 28 30 32 34 36 37 37 39 41 44 46 50 53 54 56 56 54 50 50
26 27 27 27 28 27 28 29 31 32 34 36 38 38 38 39 41 44 47 51 53 55 55 56 52 50 51
27 27 27 27 28 30 31 33 34 34 36 38 40 39 39 40 40 45 48 51 52 55 55 54 49 50 52
28 28 29 30 32 34 34 35 36 37 38 40 41 40 38 39 43 43 47 51 52 55 55 54 47 48 51

GFSFLT2_500_spd_105.txt.gz
Wind_Speed
43 44 46 47 46 45 42 37 34 30 27 27 27 30 30 29 28 26 24 24 25 26 28 29 31 32 33
43 45 47 46 45 43 39 36 30 31 28 27 30 30 29 27 26 24 24 25 26 26 29 31 32 33 35
41 40 43 44 42 38 33 31 32 28 26 29 29 29 27 25 23 24 25 26 26 28 30 32 34 36 36
40 38 38 37 38 34 32 32 30 26 26 28 28 28 26 23 23 24 25 26 28 29 32 34 35 36 36
40 39 36 36 33 33 37 28 26 26 27 26 27 26 24 23 24 24 25 27 28 31 33 35 36 37 37
39 40 41 42 39 40 27 25 26 26 26 27 26 24 23 23 23 25 26 28 30 33 35 36 38 39 39
39 40 39 41 41 36 27 29 26 27 28 26 24 23 22 22 24 26 28 30 32 34 36 37 38 39 42
40 40 37 35 34 27 28 26 26 27 26 24 22 22 22 23 26 29 31 32 34 36 36 36 40 44 46
39 33 30 29 28 27 26 25 26 24 23 22 22 22 24 25 28 30 32 34 35 36 35 39 45 47 45
33 29 27 26 28 24 24 24 23 22 23 23 23 24 25 27 29 31 32 34 36 37 37 42 46 49 48
29 27 29 26 25 23 24 22 22 24 23 23 24 25 26 29 31 33 34 34 36 38 39 43 48 51 51
28 29 27 25 23 24 23 23 24 23 23 24 25 26 29 32 33 35 35 35 35 38 40 45 48 52 51
31 28 25 23 24 25 24 25 25 24 24 25 27 29 31 33 35 36 36 36 35 38 42 45 49 52 51
27 25 22 24 25 25 26 27 26 25 26 28 30 31 32 34 36 37 37 37 36 38 42 46 49 51 52
26 25 22 25 25 26 28 28 27 27 29 31 32 33 34 36 37 38 37 37 36 38 42 46 48 51 52
29 24 24 25 26 27 29 29 29 30 31 32 32 33 36 38 38 38 38 38 37 39 42 44 47 50 52
28 26 26 26 27 29 30 32 32 33 33 34 34 35 38 39 39 38 41 38 37 38 41 44 45 49 51

GFSFLT2_500_spd_108.txt.gz
Wind_Speed
42 41 40 43 45 46 49 47 45 39 34 34 33 31 25 24 29 27 25 24 22 22 23 24 25 26 28
41 42 44 44 44 43 42 37 35 34 32 29 31 27 26 28 26 25 23 22 22 23 23 23 26 27 29
46 45 46 48 44 43 38 35 36 32 29 29 28 24 27 26 25 25 22 23 22 22 23 25 26 28 29
50 48 48 47 42 41 38 37 33 31 32 29 25 26 25 25 26 23 22 23 22 23 24 25 27 29 31
51 50 49 45 41 39 39 38 38 37 30 25 25 25 25 27 25 23 22 22 23 24 25 27 28 30 32
52 49 48 46 40 41 40 38 38 36 27 24 22 24 26 26 23 22 22 23 24 25 27 28 30 33 34
49 46 46 42 40 40 37 41 40 30 29 24 24 26 25 24 23 23 23 23 24 26 28 30 32 33 34
46 42 40 40 39 38 39 35 34 29 26 25 22 25 23 23 23 23 23 23 25 26 28 30 33 34 35
38 37 39 37 38 36 33 33 30 30 26 20 24 23 23 24 24 24 24 24 26 27 29 31 34 35 36
37 38 37 37 34 33 31 31 31 24 21 23 23 23 24 25 25 25 24 26 28 30 31 33 34 35 37
36 37 37 34 33 35 31 31 26 20 22 23 22 23 24 26 26 26 26 28 29 31 32 34 35 35 37
35 36 36 34 33 33 31 27 22 22 24 22 23 24 26 26 28 28 28 30 31 33 34 36 35 36 37
37 37 34 33 33 31 29 23 22 24 24 24 24 26 27 27 29 30 30 32 33 34 36 37 37 37 39
37 36 34 32 33 30 26 22 24 25 26 26 27 28 28 29 30 32 34 34 34 36 36 38 39 38 38
36 32 33 33 32 29 24 23 25 27 27 29 30 30 30 30 32 34 36 36 35 36 38 40 40 39 38
33 34 32 30 31 28 26 26 26 28 29 31 32 33 32 32 34 36 37 37 36 38 39 41 41 40 38
31 31 32 31 33 30 28 28 28 29 30 32 34 34 34 35 35 37 38 38 38 40 40 41 39 40 40

GFSFLT2_500_spd_111.txt.gz
Wind_Speed
46 44 44 39 38 39 41 44 44 43 41 37 35 34 33 31 31 26 24 26 25 24 21 21 22 21 22
47 47 41 40 42 43 43 44 44 43 39 36 36 34 29 30 28 26 23 26 23 21 22 21 22 21 22
44 43 46 46 46 47 46 45 42 40 38 38 32 30 33 32 25 24 24 25 22 20 21 21 22 22 21
48 50 51 51 50 49 48 45 42 41 38 38 35 34 36 25 24 23 24 24 21 21 21 22 23 22 23
54 55 55 52 51 50 48 45 40 40 40 39 35 36 29 28 24 24 25 23 22 21 21 22 22 23 24
57 55 55 54 53 48 46 43 38 40 39 37 37 36 34 29 25 24 24 23 22 21 22 22 23 24 25
56 55 52 51 47 46 43 38 39 40 38 37 35 35 30 27 23 24 23 23 22 22 22 22 24 25 26
49 47 46 47 44 42 37 38 40 38 38 35 34 31 30 23 23 24 23 22 22 23 23 24 26 27 28
45 42 42 43 41 38 39 39 37 37 36 34 35 33 26 22 25 24 23 23 23 24 24 26 28 29 29
41 41 41 40 39 39 38 39 33 35 35 32 32 29 21 23 24 24 24 24 24 25 27 28 29 30 31
38 37 35 36 36 35 38 33 34 36 33 28 29 22 22 24 24 24 25 25 25 26 28 29 30 32 33
35 34 32 32 34 37 38 37 37 34 30 31 24 23 24 24 25 25 26 26 26 28 29 31 32 33 33
34 32 31 31 32 34 34 33 32 31 32 27 24 26 25 25 27 28 28 27 28 29 31 32 33 35 34
36 35 35 34 37 36 34 30 31 34 31 26 26 28 27 27 29 30 30 29 30 32 34 34 35 36 36
27 28 30 30 32 34 31 32 34 34 32 28 28 29 30 30 31 32 32 32 32 33 34 35 36 37 38
26 28 30 31 32 30 31 35 37 36 33 30 31 31 32 32 33 33 33 33 34 35 36 37 38 39 40
29 31 31 29 29 31 34 37 37 37 35 33 33 32 32 33 33 34 34 34 36 37 39 39 39 42 42

GFSFLT2_500_spd_114.txt.gz
Wind_Speed
40 38 47 49 56 56 49 40 40 41 42 41 39 36 34 34 35 31 28 28 28 25 22 23 21 18 18
50 56 56 53 47 47 43 42 43 44 43 41 43 36 33 34 28 27 31 28 28 19 22 23 20 18 18
46 44 47 48 46 46 47 46 47 47 44 41 42 36 33 33 30 29 33 28 19 21 23 21 19 19 17
48 47 49 51 52 52 52 51 50 45 41 41 38 35 34 35 32 29 26 24 21 21 23 21 20 19 17
55 56 54 55 56 55 55 54 50 45 42 39 36 35 36 36 32 27 27 24 23 22 22 21 20 19 17
59 57 55 54 53 54 54 51 48 43 39 37 37 37 37 35 33 31 31 28 22 23 22 21 20 19 19
54 54 52 52 52 50 48 45 42 42 40 36 36 37 35 35 34 33 36 26 21 24 22 21 21 21 21
52 51 50 48 44 43 42 41 40 39 38 36 36 35 37 33 35 32 29 21 23 23 22 22 23 22 23
47 46 45 43 43 42 41 40 39 37 36 36 35 37 34 35 35 34 25 21 24 24 23 24 23 24 25
44 43 41 40 39 37 38 37 35 33 33 33 38 34 34 35 31 29 21 23 24 24 24 24 25 27 26
40 37 35 34 33 33 34 32 29 29 31 35 35 31 32 26 29 23 22 24 25 25 24 25 28 28 28
37 35 35 33 33 33 32 31 30 30 32 35 34 31 26 29 27 21 25 25 25 25 25 28 30 30 30
38 35 36 32 34 34 31 30 29 29 30 32 29 26 29 32 26 24 26 26 26 26 27 29 31 32 32
35 35 36 34 35 31 31 31 29 28 27 23 23 27 35 33 27 27 27 28 29 27 29 33 33 33 33
34 30 31 32 29 27 27 26 26 24 21 21 26 31 36 33 29 30 31 31 29 30 31 34 35 34 34
34 37 35 30 29 28 29 27 24 22 23 26 30 33 37 35 32 33 35 34 32 32 34 35 36 36 36
33 32 32 33 32 30 31 28 25 26 28 29 31 34 39 38 35 35 35 34 33 33 34 35 36 37 38

GFSFLT2_500_spd_117.txt.gz
Wind_Speed
44 44 47 49 45 51 58 54 53 53 45 40 40 38 37 38 33 30 29 29 25 25 28 26 21 18 19
46 45 48 50 52 52 52 51 47 45 43 42 43 42 39 37 35 31 29 28 26 26 29 27 20 19 18
41 43 46 48 49 49 50 50 50 51 50 49 47 45 42 39 36 31 31 30 27 27 24 21 21 19 19
43 46 50 53 55 55 54 54 53 52 52 50 49 47 42 39 35 34 33 29 25 29 23 24 21 21 21
50 51 52 52 53 54 54 53 52 51 50 49 45 40 38 37 36 36 34 31 27 28 27 25 21 23 21
51 52 52 53 53 51 50 50 49 48 47 43 40 37 37 35 36 37 33 32 30 31 32 24 22 24 22
50 50 50 50 49 48 47 47 45 42 39 37 37 36 36 35 35 34 31 32 32 34 33 23 24 25 23
47 46 45 46 46 44 43 42 40 38 37 36 36 35 35 34 33 32 32 33 33 35 32 22 25 26 25
46 45 45 46 43 40 40 37 35 36 36 35 34 34 32 30 30 32 35 32 34 32 26 23 27 27 26
44 42 42 43 41 39 36 33 32 31 32 32 31 29 28 27 29 35 33 32 33 31 24 25 28 28 26
41 41 41 41 39 36 35 35 33 32 33 30 31 27 25 27 35 34 32 27 30 28 24 27 29 28 27
39 40 41 40 38 37 35 35 32 32 31 28 27 26 26 27 29 25 25 28 31 26 25 28 29 28 28
40 40 41 40 38 36 36 36 36 36 31 27 26 27 26 24 23 23 26 31 29 26 28 28 29 29 29
41 40 41 38 34 34 33 34 34 30 29 29 26 25 23 22 23 24 29 32 30 28 28 29 29 30 30
41 39 38 35 33 33 33 32 30 27 27 26 26 23 21 23 24 25 33 36 31 29 29 31 31 31 32
39 38 37 35 32 32 33 32 30 29 28 28 26 24 24 24 25 28 36 39 33 32 32 33 33 34 34
38 38 37 35 32 31 31 32 34 31 29 27 29 28 27 27 27 31 37 40 39 36 36 37 37 36 35